Overview Statistics Trail Chart Weather Telemetry Raw packets
 

This is the latest recevied weather packets stored in our database for station/object YD2CLX-11. If no packets are shown the sender has not sent any weather packets the latest 10 day(s).

<< 1 2 3 4 >>
Time Temp. Humidity Pressure Rain* Wind** Luminosity Snow
1788608735 28.33° C 65% 1000.6 hPa - - - -
1788608134 28.33° C 64% 1000.5 hPa - - - -
1788607533 28.33° C 63% 1000.3 hPa - - - -
1788606932 28.89° C 61% 1000.1 hPa - - - -
1788606331 28.89° C 61% 999.9 hPa - - - -
1788605729 28.89° C 60% 999.7 hPa - - - -
1788605128 29.44° C 58% 999.5 hPa - - - -
1788604527 30° C 57% 999.3 hPa - - - -
1788603926 30° C 55% 999.2 hPa - - - -
1788603325 30.56° C 54% 999.1 hPa - - - -
1788602724 31.11° C 53% 998.7 hPa - - - -
1788602123 31.67° C 51% 998.5 hPa - - - -
1788601521 31.67° C 50% 998.5 hPa - - - -
1788600920 32.22° C 50% 998.5 hPa - - - -
1788600319 32.22° C 49% 998.4 hPa - - - -
1788599717 32.78° C 49% 998.3 hPa - - - -
1788599116 32.78° C 48% 998.2 hPa - - - -
1788598515 33.33° C 48% 998.2 hPa - - - -
1788597913 33.33° C 46% 998.1 hPa - - - -
1788597312 32.78° C 47% 998 hPa - - - -
1788596712 33.89° C 46% 997.9 hPa - - - -
1788596110 33.33° C 45% 997.9 hPa - - - -
1788595509 33.89° C 45% 997.9 hPa - - - -
1788594908 34.44° C 44% 997.9 hPa - - - -
1788594307 34.44° C 43% 997.8 hPa - - - -

* Rain since midnight (hover to see other rain measurements)
** Current wind speed in m/s (hover to see current wind gust speed)